Theta_e
290 291 292 292 292 292 292 292 292 292 292 292 292 292 292 291 290 290 290 290 290 290 289 289 289 289 289 289 289 289 288 290 294 286 286 285 284 282 281 281 282 282 282
289 290 290 290 290 290 291 291 291 291 291 290 290 291 291 290 290 289 290 289 289 289 289 288 289 288 288 288 288 288 287 287 289 286 283 282 282 281 280 281 282 282 281
287 288 289 288 288 288 287 289 290 289 290 290 290 289 289 289 289 289 289 289 288 288 288 288 288 287 287 287 287 286 286 286 286 287 283 281 280 280 279 280 280 281 280
286 287 287 287 287 286 285 286 287 288 288 288 288 289 289 288 288 288 288 288 288 287 288 287 287 287 287 286 286 286 286 285 284 284 284 280 280 279 280 281 281 281 281
284 285 286 286 285 284 284 284 284 285 287 287 287 287 287 287 287 287 287 287 287 286 286 286 286 286 286 287 286 285 285 284 283 283 282 281 280 280 280 281 282 282 282
283 283 283 284 283 281 281 283 283 284 284 286 287 286 286 286 286 287 286 286 286 286 286 286 285 285 285 285 285 285 285 284 283 283 282 281 281 281 281 281 281 281 284
282 282 281 281 280 280 280 283 282 283 283 284 284 286 286 286 286 287 286 286 286 286 286 285 284 284 284 284 285 285 284 284 284 283 283 281 281 281 281 281 280 281 282
281 281 281 280 279 278 279 281 280 281 282 283 283 284 286 286 286 286 287 287 286 286 286 285 284 284 282 283 284 284 283 282 282 282 282 282 281 281 280 281 280 280 280
281 281 280 279 277 277 277 278 278 279 280 281 282 283 284 285 286 286 286 286 287 286 285 285 285 284 282 283 283 283 282 281 281 280 279 280 280 280 279 279 279 279 278
280 279 279 277 276 275 275 275 276 276 278 279 281 282 283 284 285 285 286 286 287 287 286 284 284 283 283 283 283 283 283 281 280 279 278 280 280 279 279 279 278 278 277
279 278 277 276 275 274 274 274 274 274 275 277 279 280 281 282 283 284 285 285 286 287 287 285 283 283 283 282 283 283 283 281 280 279 279 279 279 279 280 279 277 276 276
276 275 275 274 273 272 272 272 272 273 274 276 277 280 281 282 283 283 284 285 285 286 287 285 283 282 282 282 283 282 282 281 280 280 280 279 278 277 277 276 274 274 274
273 272 272 271 271 270 270 270 271 272 273 275 277 280 281 281 282 282 283 284 285 286 286 285 283 281 282 283 283 283 282 280 280 280 280 278 277 276 275 273 273 272 272
270 269 269 269 269 268 268 269 270 271 272 274 276 279 280 281 281 281 280 281 283 284 285 284 283 281 281 282 282 284 282 279 279 278 278 276 275 274 273 272 272 271 271
266 266 266 266 266 266 266 267 268 269 270 272 273 275 278 279 280 281 280 280 281 283 284 282 281 281 281 282 282 282 280 277 277 277 276 274 273 272 272 271 271 271 271
263 263 264 264 264 264 265 265 266 267 269 271 272 274 276 277 280 281 281 282 281 282 282 281 281 280 281 282 283 280 278 276 276 275 274 273 272 271 271 270 270 270 270
262 263 263 263 263 264 264 264 265 265 267 269 271 273 275 276 279 282 283 282 282 283 282 281 281 281 282 282 282 277 276 276 274 274 273 272 271 271 271 270 270 270 269
262 262 263 263 263 263 263 264 264 265 266 267 268 270 273 277 280 282 283 283 282 282 283 281 281 281 281 280 278 276 275 273 273 272 271 271 270 270 269 269 269 269 269
262 263 263 263 263 263 264 264 265 265 266 267 267 269 271 275 278 280 281 283 282 282 283 280 280 280 279 278 275 274 273 272 272 271 270 269 269 268 268 268 268 267 267
263 264 264 264 264 264 265 265 266 266 267 267 269 270 272 276 277 278 282 283 282 282 282 280 279 276 276 275 274 272 271 270 269 268 267 267 267 267 267 267 267 267 267
263 264 264 264 265 265 266 266 266 267 267 268 270 271 275 277 277 278 281 282 282 282 278 276 275 275 273 272 270 270 269 268 267 267 267 267 267 266 266 266 266 266 266
264 264 264 265 266 267 268 269 270 270 269 270 271 275 275 276 277 278 277 275 275 275 274 273 273 272 271 270 269 268 267 266 267 267 266 267 266 266 265 265 265 266 266
263 263 264 265 266 267 269 269 270 271 273 273 272 272 271 270 270 269 269 269 270 271 271 271 270 268 268 268 268 268 267 267 268 268 267 267 266 265 265 265 265 264 265
262 263 264 265 265 265 266 266 267 267 267 267 266 266 266 265 265 265 265 266 267 267 267 267 268 269 267 267 268 269 270 269 269 268 268 267 266 265 265 265 265 265 265
261 262 263 263 263 264 264 265 265 265 265 265 265 264 264 263 263 263 263 264 264 265 265 266 266 267 268 268 268 268 267 267 267 267 266 266 266 266 266 265 265 265 265
260 260 261 262 262 263 263 263 263 263 263 263 263 263 263 263 262 262 262 263 263 264 266 266 266 267 267 266 266 266 267 267 266 266 266 266 266 266 265 266 266 265 265
Wind_Speed
26 25 22 22 22 21 17 14 14 15 17 21 25 27 28 31 33 36 39 37 40 39 38 36 37 34 33 29 28 26 22 16 9 9 16 16 22 20 19 17 14 11 9
23 21 21 22 22 23 23 22 18 15 15 17 20 26 29 31 33 36 37 37 38 38 36 36 35 32 33 30 31 29 28 23 13 13 17 18 17 20 17 16 15 14 10
21 21 23 24 24 25 25 25 23 19 17 17 20 22 26 29 33 36 39 39 38 41 40 40 39 37 38 33 33 30 30 28 19 13 11 15 12 18 17 16 15 13 12
18 19 20 22 25 28 31 30 29 27 20 17 19 26 28 30 34 35 36 37 38 39 39 42 43 47 45 41 39 35 33 31 25 18 14 15 16 14 16 15 16 14 11
18 16 16 19 19 23 25 30 34 33 28 24 22 26 27 30 32 33 35 36 37 36 40 44 47 47 46 48 45 40 37 29 26 21 17 14 18 14 20 15 14 9 7
20 18 18 17 20 27 27 26 28 28 28 25 25 25 26 28 28 32 35 35 36 38 40 40 42 46 52 50 48 42 48 41 31 27 25 22 23 21 18 15 10 5 2
27 29 27 23 21 21 25 23 25 26 27 28 28 26 26 28 28 30 35 38 35 38 40 40 38 41 47 49 48 45 41 42 43 42 32 29 23 25 20 17 14 10 6
20 19 20 23 28 28 25 23 26 26 26 27 29 28 28 27 26 30 31 38 39 40 41 41 41 41 43 45 42 39 40 42 39 34 33 27 25 25 23 17 16 11 9
20 20 21 22 25 28 29 29 27 27 29 29 28 30 31 33 26 26 30 32 36 41 40 40 42 42 45 46 45 44 38 37 36 31 28 23 22 21 23 18 15 14 8
24 24 23 23 27 28 29 31 32 29 30 29 32 30 31 35 31 28 26 32 33 36 37 38 44 44 41 44 45 41 37 38 36 31 26 23 24 23 22 20 18 17 11
25 26 26 27 29 29 30 32 33 33 34 34 32 33 31 32 34 30 29 32 35 32 33 34 37 40 42 42 47 42 43 36 37 36 31 28 27 25 26 22 19 18 16
26 27 28 30 31 31 31 34 33 31 31 35 34 34 30 30 30 31 32 35 36 36 34 32 32 34 42 41 45 38 35 34 36 33 31 30 29 27 23 22 19 17 15
31 32 33 34 33 33 32 32 30 31 29 31 28 29 31 27 27 28 32 33 33 40 36 33 30 31 37 39 44 42 38 37 36 34 32 29 28 25 21 18 15 15 13
35 37 36 34 34 32 32 31 30 29 28 28 27 27 28 27 28 25 23 27 32 33 34 33 32 31 34 36 38 41 42 38 36 32 30 26 26 25 22 21 17 15 12
35 35 35 33 33 32 31 31 31 32 32 31 31 30 28 26 28 25 23 23 26 28 26 25 28 29 30 31 33 35 36 32 31 28 29 28 25 23 20 19 14 14 11
32 31 30 31 32 32 32 33 34 38 41 43 46 45 42 46 44 37 34 28 30 28 24 25 25 27 26 29 30 30 31 32 31 30 27 30 26 23 21 18 14 14 12
32 33 32 32 31 30 30 30 26 31 35 36 39 40 43 47 44 39 35 32 30 28 27 25 24 25 25 27 27 27 29 32 31 30 29 28 25 21 21 18 16 14 11
32 33 32 31 31 30 30 30 30 26 21 26 29 33 35 34 33 32 33 28 25 28 25 25 23 24 25 26 25 24 25 28 30 29 27 26 25 23 21 18 15 12 9
32 30 31 31 31 32 32 32 31 29 27 27 29 29 29 30 28 29 30 27 20 20 22 25 23 23 24 26 28 25 28 26 27 27 26 26 24 22 18 15 14 12 10
30 30 31 30 30 30 29 27 27 26 25 24 23 24 26 20 17 19 22 23 20 18 20 24 22 22 26 24 24 25 25 25 25 24 24 25 23 20 16 14 11 10 9
29 29 30 29 27 28 27 26 26 24 22 22 23 25 22 19 17 17 16 17 15 12 18 22 26 27 24 25 25 26 25 25 25 25 27 25 24 20 14 13 11 9 7
26 25 25 25 26 25 25 25 24 23 22 21 22 18 19 18 15 10 7 13 16 18 21 28 31 28 29 30 29 28 27 27 29 29 27 25 21 17 16 12 10 9 8
23 23 22 21 21 22 20 19 17 17 13 11 11 8 6 5 6 10 13 15 20 25 27 30 30 26 25 25 26 29 31 32 34 31 29 25 20 16 16 12 11 9 8
20 19 19 18 18 19 19 18 17 16 14 13 12 11 11 11 11 14 15 16 17 18 19 22 24 26 26 27 28 30 30 29 27 25 22 22 19 17 15 13 11 8 7
19 19 18 17 17 17 18 19 18 17 16 15 14 13 13 14 15 17 18 19 20 21 21 24 27 28 29 29 27 25 24 25 25 23 21 18 16 14 12 12 11 8 10
19 18 18 18 17 17 17 18 19 18 17 16 15 16 16 17 18 20 21 23 25 28 29 28 27 27 25 24 23 23 22 21 20 19 17 15 13 13 12 11 10 11 13
Wind_Direction
12 11 11 12 8 3 347 325 304 291 276 265 258 251 238 231 227 223 225 222 219 219 220 218 219 217 215 211 209 207 207 200 188 183 187 189 191 200 219 223 232 231 236
0 2 6 3 5 6 359 348 338 315 297 275 263 259 250 237 232 227 227 225 220 219 217 216 218 214 214 211 208 203 202 203 195 173 186 191 199 209 217 220 225 227 225
359 358 358 357 359 357 354 351 345 328 311 293 285 262 250 244 238 234 229 227 227 221 218 217 216 212 212 209 208 204 202 204 199 189 170 191 196 201 209 221 224 229 229
351 354 354 352 352 349 348 348 345 341 314 300 278 273 268 254 244 240 235 232 228 226 223 220 217 216 213 209 208 207 201 197 195 193 187 188 199 196 201 205 214 217 213
347 347 344 340 340 342 339 343 342 343 338 324 299 273 263 255 249 242 237 236 233 229 225 221 221 221 219 215 209 206 201 192 188 189 198 196 199 190 202 203 213 215 226
332 332 335 336 332 339 339 334 336 332 332 327 311 293 276 261 254 249 240 234 234 230 228 227 224 219 220 215 214 213 214 195 193 192 196 204 204 203 192 189 189 209 214
322 326 328 327 325 326 333 326 327 325 322 318 314 306 288 279 269 255 245 236 236 234 231 227 223 221 217 213 211 210 210 210 214 205 198 202 201 202 189 184 188 200 192
301 303 310 318 320 324 323 315 319 319 314 312 308 301 290 278 270 264 253 244 237 238 235 230 224 220 216 211 205 202 204 205 206 207 210 205 210 199 196 193 185 198 232
294 299 306 310 312 315 314 313 311 309 307 305 300 296 290 286 276 266 261 249 244 242 240 233 228 223 219 207 203 202 201 202 203 202 206 199 195 181 185 170 177 175 222
294 294 296 298 304 305 304 303 303 300 296 295 290 286 285 281 276 265 255 253 247 242 240 238 231 225 220 206 208 204 200 196 186 186 191 186 183 184 182 188 182 188 197
292 289 289 292 296 295 295 295 297 297 296 291 285 283 282 275 272 263 253 246 247 244 239 234 232 224 218 212 205 208 208 189 183 183 186 185 186 188 189 186 193 198 194
296 289 287 289 290 291 289 287 288 287 286 286 288 284 278 274 266 260 252 244 245 244 241 234 231 223 217 211 205 211 205 192 180 183 184 184 179 178 182 198 200 202 206
301 293 291 291 288 284 283 283 282 282 277 277 277 277 276 276 271 259 254 250 244 250 245 228 224 220 212 210 208 201 199 190 184 183 185 184 183 174 174 181 189 198 212
297 295 295 293 291 287 282 279 276 274 274 271 271 270 274 274 270 266 258 249 246 245 251 223 209 208 209 202 207 203 195 187 188 183 181 173 163 168 173 176 180 193 208
297 297 296 295 292 290 283 279 275 272 268 270 269 272 274 270 264 264 257 248 245 236 239 199 190 194 202 200 203 198 193 178 176 175 168 153 154 167 172 173 176 184 201
297 297 295 294 290 287 286 284 277 276 275 270 268 265 267 266 268 265 263 257 254 247 202 192 198 197 197 192 195 187 185 174 173 165 164 154 162 170 164 169 171 188 198
291 292 291 289 287 286 284 283 286 285 279 276 273 269 266 266 264 258 253 254 251 246 213 197 201 200 194 191 189 176 179 178 168 163 159 158 160 163 164 172 181 186 193
293 290 287 284 283 282 281 281 281 282 286 283 279 278 275 278 264 258 259 236 239 241 214 201 200 197 192 179 172 172 166 158 162 158 156 158 160 160 164 170 176 181 184
294 291 290 287 284 280 279 278 277 277 277 281 285 284 279 271 266 264 266 217 225 232 211 197 194 190 177 170 169 167 163 165 159 156 153 155 158 160 161 165 174 175 180
297 294 291 288 286 284 281 278 278 277 277 276 278 278 280 273 270 273 253 208 215 229 191 184 175 159 165 167 163 158 154 149 145 142 144 152 161 162 164 173 173 185 196
301 299 296 292 287 285 283 279 275 273 272 274 275 276 278 274 270 275 268 193 205 223 160 148 143 151 160 156 152 150 151 146 147 150 156 163 169 167 171 175 180 193 208
308 304 303 301 300 298 293 287 280 269 265 267 275 282 291 293 287 265 107 98 116 133 142 148 156 165 167 162 158 154 152 150 155 161 162 167 169 172 180 178 183 196 214
315 314 314 316 319 322 327 333 337 334 320 331 333 345 9 35 63 94 103 113 135 145 155 165 164 157 165 169 172 168 159 159 165 169 167 168 170 178 183 184 194 206 220
329 330 333 337 344 345 347 349 355 3 13 17 22 31 42 54 67 81 93 107 124 133 147 155 156 157 158 159 159 159 160 161 164 167 172 175 176 180 187 196 208 226 251
342 341 345 351 354 358 360 2 6 11 19 27 33 42 52 64 69 76 86 101 112 120 125 132 136 138 140 141 143 146 152 157 164 170 175 179 181 185 194 211 222 234 249
357 358 356 356 3 10 14 14 13 15 22 32 44 54 61 65 70 78 88 100 106 113 118 121 125 128 131 136 143 150 157 163 167 170 176 179 188 198 210 229 247 249 254